Tracking 18840 objects as of 18-November-2017
HD Live streaming from Space Station
objects crossing your sky now

COSMOS 1168

Track COSMOS 1168 now!
10-day predictions
COSMOS 1168 is classified as:


NORAD ID: 11735
Int'l Code: 1980-022A
Perigee: 961.9 km
Apogee: 1,016.1 km
Inclination: 82.9 °
Period: 104.7 minutes
Semi major axis: 7359 km
RCS: 2.0656 m2 (large)
Launch date: March 17, 1980
Source: Commonwealth of Independent States (former USSR) (CIS)
Launch site: PLESETSK MISSILE AND SPACE COMPLEX (PKMTR)
aabbcc
Your satellite tracking list
Your tracking list is empty




NASA's NSSDC Master Catalog

Two Line Element Set (TLE):
1 11735U 80022A   17321.90884237 +.00000031 +00000-0 +15754-4 0  9994
2 11735 082.9479 074.4727 0036849 102.6668 036.6332 13.74953440889545
Source of the keplerian elements: AFSPC